Location: Newark
(33.6439°N, 114.9881°W)
Time: 11:40:38
(UTC+00:00)

Vanguard 2 - All Passes

Search period start: 17 August 2019 00:00
Search period end: 27 August 2019 00:00
Orbit: 553 x 2938 km, 32.9° (Epoch: 17 August)

Date Brightness Start Highest point End Pass type
(mag) Time Alt. Az. Time Alt. Az. Time Alt. Az.
17 Aug - 00:11:35 10° W 00:22:50 87° S 00:40:06 10° E daylight
17 Aug - 02:21:10 10° W 02:35:21 71° SSW 02:53:16 10° ESE visible
17 Aug - 04:32:38 10° W 04:47:28 40° SW 05:02:44 10° SSE visible
17 Aug - 06:52:06 10° WSW 06:58:03 12° SW 07:03:48 10° SSW visible
17 Aug - 20:14:24 10° SSW 20:20:30 38° SE 20:30:11 10° E daylight
17 Aug - 22:21:07 10° WSW 22:29:40 80° SSE 22:44:12 10° E daylight
18 Aug - 00:29:38 10° W 00:41:07 85° S 00:58:30 10° ESE daylight
18 Aug - 02:39:20 10° W 02:53:30 62° SSW 03:11:05 10° SE visible
18 Aug - 04:51:33 10° W 05:05:16 32° SW 05:19:20 10° SSE visible
18 Aug - 18:29:49 10° SE 18:30:57 10° SE 18:32:11 10° ESE daylight
18 Aug - 20:31:48 10° SW 20:38:09 50° SSE 20:48:42 10° E daylight
18 Aug - 22:39:03 10° W 22:47:48 85° S 23:02:39 10° E daylight
19 Aug - 00:47:42 10° W 00:59:23 80° SSW 01:16:49 10° ESE daylight
19 Aug - 02:57:35 10° W 03:11:35 53° SSW 03:28:38 10° SE visible
19 Aug - 05:11:01 10° W 05:23:03 24° SW 05:35:21 10° S visible
19 Aug - 18:44:39 10° S 18:48:18 17° SE 18:53:01 10° E daylight
19 Aug - 20:49:24 10° WSW 20:55:57 62° SSE 21:07:07 10° E daylight
19 Aug - 22:57:02 10° W 23:06:00 87° S 23:21:06 10° E daylight
20 Aug - 01:05:45 10° W 01:17:36 74° SSW 01:35:00 10° ESE daylight
20 Aug - 03:15:58 10° W 03:29:35 44° SSW 03:45:53 10° SSE visible
20 Aug - 05:31:31 10° WSW 05:40:51 17° SW 05:50:18 10° S visible
20 Aug - 19:01:16 10° SSW 19:05:44 26° SE 19:12:07 10° E daylight
20 Aug - 21:07:10 10° WSW 21:13:53 73° SSE 21:25:30 10° E daylight
20 Aug - 23:15:03 10° W 23:24:13 86° S 23:39:33 10° E daylight
21 Aug - 01:23:50 10° W 01:35:46 66° SSW 01:52:59 10° SE daylight
21 Aug - 03:34:36 10° W 03:47:34 36° SW 04:02:45 10° SSE visible
21 Aug - 05:55:42 10° SW 05:58:42 11° SW 06:01:41 10° SW visible
21 Aug - 19:18:24 10° SW 19:23:17 36° SSE 19:30:45 10° E daylight
21 Aug - 21:25:03 10° WSW 21:31:55 81° S 21:43:54 10° E daylight
21 Aug - 23:33:02 10° W 23:42:25 82° S 23:57:57 10° ESE daylight
22 Aug - 01:41:59 10° W 01:53:54 56° SSW 02:10:43 10° SE daylight
22 Aug - 03:53:38 10° W 04:05:31 28° SW 04:19:05 10° SSE visible
22 Aug - 19:35:52 10° SW 19:40:59 49° SSE 19:49:11 10° E daylight
22 Aug - 21:42:59 10° W 21:50:01 86° S 22:02:18 10° E daylight
22 Aug - 23:51:03 10° W 00:00:36 76° SSW 00:16:14 10° ESE daylight
23 Aug - 02:00:14 10° W 02:12:00 47° SSW 02:28:10 10° SE daylight
23 Aug - 04:13:23 10° W 04:23:28 20° SW 04:34:41 10° S visible
23 Aug - 17:48:35 10° S 17:51:20 15° SE 17:54:37 10° ESE daylight
23 Aug - 19:53:32 10° WSW 19:58:49 62° SSE 20:07:32 10° E daylight
23 Aug - 22:00:56 10° W 22:08:09 86° S 22:20:44 10° E daylight
24 Aug - 00:09:04 10° W 00:18:45 68° SSW 00:34:21 10° ESE daylight
24 Aug - 02:18:41 10° W 02:30:05 38° SSW 02:45:15 10° SSE visible
24 Aug - 04:34:44 10° WSW 04:41:29 14° SW 04:48:41 10° SSW visible
24 Aug - 18:05:15 10° SSW 18:08:53 24° SE 18:13:38 10° E daylight
24 Aug - 20:11:20 10° WSW 20:16:45 74° SSE 20:25:51 10° E daylight
24 Aug - 22:18:54 10° W 22:26:17 84° S 22:39:07 10° E daylight
25 Aug - 00:27:08 10° W 00:36:53 58° SSW 00:52:14 10° SE daylight
25 Aug - 02:37:27 10° W 02:48:09 30° SSW 03:01:52 10° SSE visible
25 Aug - 18:22:28 10° SW 18:26:31 35° SSE 18:32:11 10° E daylight
25 Aug - 20:29:13 10° W 20:34:46 82° S 20:44:10 10° E daylight
25 Aug - 22:36:51 10° W 22:44:25 78° S 22:57:27 10° ESE daylight
26 Aug - 00:45:17 10° W 00:55:00 49° SSW 01:09:51 10° SE daylight
26 Aug - 02:56:44 10° W 03:06:14 22° SW 03:17:51 10° S visible
26 Aug - 18:40:01 10° SW 18:44:17 48° SSE 18:50:31 10° E daylight
26 Aug - 20:47:08 10° W 20:52:50 86° S 21:02:30 10° E daylight
26 Aug - 22:54:50 10° W 23:02:31 69° SSW 23:15:38 10° ESE daylight
